Page, AZ

3:35 AM MDT on April 22, 2018 (GMT -0600)
Page Municipal

Weather History for KPGA - March, 2012

Change the Weather History Date:

Tuesday, March 20, 2012

  Actual Average Record
Temperature  
Mean Temperature 43 °F -  
Max Temperature 53 °F 59 °F 82 °F (2017)
Min Temperature 33 °F 37 °F 25 °F (1964)
Degree Days  
Heating Degree Days 22    
Moisture  
Dew Point 17 °F    
Average Humidity 38    
Maximum Humidity 64    
Minimum Humidity 20    
Precipitation  
Precipitation 0.00 in - - ()
Sea Level Pressure  
Sea Level Pressure 30.03 in    
Wind  
Wind Speed 3 mph (NNW)    
Max Wind Speed 9 mph    
Max Gust Speed -    
Visibility 10 miles    
Events      
Averages and records for this station are not official NWS values.
T = Trace of Precipitation, MM = Missing Value Source: NWS Daily Summary

Daily Weather History Graph

Daily Weather History Graph

Search for Another Location

Airport or City:

Astronomy

Mar. 20, 2012 Rise Set
Actual Time 6:28 AM MST 6:38 PM MST
Civil Twilight 6:02 AM MST 7:04 PM MST
Nautical Twilight 5:32 AM MST 7:34 PM MST
Astronomical Twilight 5:01 AM MST 8:05 PM MST
Moon 5:10 AM MST (3/20) 5:10 PM MST (3/20)
Length of Visible Light 13h 01m
Length of Day
12h 09m
Waning Crescent, 3% of the Moon is Illuminated
Mar 20
Waning Crescent
Mar 22
New
Mar 30
First Quarter
Apr 6
Full
Apr 13
Last Quarter

Hourly Weather History & Observations

Time (MST) Temp. Windchill Dew Point Humidity Pressure Visibility Wind Dir Wind Speed Gust Speed Precip Events Conditions
12:53 AM 36.0 °F - 21.9 °F 57% 29.92 in 10.0 mi Calm Calm - N/A   Clear
1:53 AM 36.0 °F 32.1 °F 21.9 °F 57% 29.92 in 10.0 mi NW 4.6 mph - N/A   Clear
2:53 AM 36.0 °F 33.3 °F 21.9 °F 57% 29.91 in 10.0 mi West 3.5 mph - N/A   Clear
3:53 AM 35.1 °F 31.0 °F 21.0 °F 57% 29.93 in 10.0 mi WNW 4.6 mph - N/A   Clear
4:53 AM 35.1 °F 31.0 °F 19.9 °F 54% 29.95 in 10.0 mi NW 4.6 mph - N/A   Clear
5:53 AM 33.1 °F - 21.9 °F 64% 29.99 in 10.0 mi Calm Calm - N/A   Clear
6:53 AM 35.1 °F - 21.0 °F 57% 30.02 in 10.0 mi Calm Calm - N/A   Clear
7:53 AM 37.0 °F 33.3 °F 19.9 °F 50% 30.06 in 10.0 mi NW 4.6 mph - N/A   Clear
8:53 AM 39.9 °F 36.7 °F 19.0 °F 43% 30.08 in 10.0 mi Variable 4.6 mph - N/A   Clear
9:53 AM 42.1 °F 36.6 °F 17.1 °F 37% 30.10 in 10.0 mi NW 9.2 mph - N/A   Clear
10:53 AM 44.6 °F 42.2 °F 17.6 °F 34% 30.12 in 10.0 mi Variable 4.6 mph - N/A   Clear
11:53 AM 46.9 °F - 15.1 °F 28% 30.09 in 10.0 mi NNE 5.8 mph - N/A   Clear
12:53 PM 46.4 °F 44.3 °F 14.0 °F 27% 30.11 in 10.0 mi NNW 4.6 mph - N/A   Clear
1:53 PM 48.9 °F - 12.9 °F 24% 30.06 in 10.0 mi North 5.8 mph - N/A   Clear
2:53 PM 50.0 °F - 14.0 °F 24% 30.07 in 10.0 mi Variable 3.5 mph - N/A   Clear
3:53 PM 53.1 °F - 12.9 °F 20% 30.02 in 10.0 mi ENE 6.9 mph - N/A   Clear
4:53 PM 53.1 °F - 12.0 °F 20% 30.01 in 10.0 mi Calm Calm - N/A   Clear
5:53 PM 51.1 °F - 12.0 °F 21% 30.01 in 10.0 mi ESE 4.6 mph - N/A   Clear
6:53 PM 48.9 °F - 12.9 °F 24% 30.01 in 10.0 mi Calm Calm - N/A   Clear
7:53 PM 46.9 °F - 14.0 °F 27% 30.02 in 10.0 mi ESE 4.6 mph - N/A   Clear
8:53 PM 45.0 °F 43.5 °F 16.0 °F 31% 30.05 in 10.0 mi SSE 3.5 mph - N/A   Clear
9:53 PM 48.0 °F - 19.0 °F 32% 30.05 in 10.0 mi NW 5.8 mph - N/A   Clear
10:53 PM 48.0 °F - 16.0 °F 28% 30.06 in 10.0 mi North 3.5 mph - N/A   Clear
11:53 PM 45.0 °F - 19.9 °F 37% 30.08 in 10.0 mi Calm Calm - N/A   Clear